Location: Lewisville
(33.0462°N, 96.9942°W)
Time: 07:42:40
(UTC-05:00)

X-37B - Pass Details

Date: 20 September 2021
Orbit: 385 x 389 km, 45.0° (Epoch: 17 October)

Event Time Altitude Azimuth Distance (km) Brightness Sun altitude
Exits shadow 06:23:18 20° 253° (WSW) 975 2.0 -11.6°
Maximum altitude 06:25:19 58° 328° (NNW) 456 0.8 -11.2°
Drops below altitude 10° 06:28:28 10° 49° (NE) 1,413 4.4 -10.6°
Sets 06:30:33 0° 53° (NE) 2,270 5.7 -10.1°
